www.pogodaiklimat.ru

Погода и климат >> Архив погоды >> Боливия >> Ассенсьон де Гуарай


ПОГОДА в Ассенсьон де Гуарае

  • Прогноз погоды в Ассенсьон де Гуарае
  • Монитор погоды в Ассенсьон де Гуарае

АРХИВ ПОГОДЫ в Ассенсьон де Гуарае

Время (UTC), дата Ветер
(напр.,м/с)
 
Видим.   Явления Облачность Т
(С)
Тd
(С)
f
(%)
Тe
(С)
Тes
(С)
Комфортность P
(гПа)
Po
(гПа)
Тmin
(С)
Tmax
(С)
R
(мм)
R24
(мм)
S
(см)
18 15.03 штиль 0 20 км 8/8 360 м
[Cu Sc]
+30.0 +23.2 67 +40 +45 очень
душно
1012.0 983.0
21 15.03 штиль 0 20 км 9/9 450 м
[Cu Sc]
+28.0 +22.5 72 +37 +37 очень
душно
1009.0 980.0 +31.9
12 16.03 С 2 30 км 6/0
[Ci sp]
+25.0 +23.6 92 +34 +38 очень
душно
1012.3 984.5 +22.0
15 16.03 С 6 30 км 1/1 450 м
[Sc]
+30.5 +25.2 73 +44 +50 опасность
перегрева
1012.7 984.8
18 16.03 С 6 30 км 5/5 600 м
[Cb cap]
+32.0 +25.4 68 +46 +49 опасность
перегрева
1009.5 981.7
21 16.03 С 3 6000 м осадки на расстоянии 10/10 500 м
[Cb cap]
+29.0 +25.0 79 +42 +42 опасность
перегрева
1006.7 979.0 +33.0
12 17.03 С 3 30 км 5/0 2000 м
[Ac trans]
+25.2 +24.2 94 +35 +38 очень
душно
1012.5 984.6 +23.0 4
15 17.03 С 2 30 км 9/5 450 м
[Sc Ac trans]
+29.1 +25.5 81 +43 +48 опасность
перегрева
1013.6 985.7
18 17.03 С 6 30 км 8/8 500 м
[Cb cap Ci sp]
+31.2 +26.0 74 +47 +48 опасность
перегрева
1010.6 982.7
21 17.03 штиль 0 30 км в посл. час гроза {дождь} 10/8 600 м
[Cb cap Cs]
+24.5 +23.8 96 +33 +34 очень
душно
1008.5 980.7 +32.0
12 18.03 штиль 0 20 км осадки на расстоянии 10/8 450 м
[Cb cap As op]
+23.2 +22.9 98 +32 +32 очень
душно
1013.6 985.6 +22.5 4
15 18.03 С 2 30 км 9/5 600 м
[Sc Ac trans]
+27.1 +24.4 85 +38 +43 очень
душно
1014.7 986.7
18 18.03 С 3 30 км 9/1 600 м
[Cu med, cong Ac trans]
+31.2 +25.7 73 +46 +52 опасность
перегрева
1012.4 984.3
21 18.03 штиль 0 30 км 9/0
[Ci ing]
+29.5 +26.0 81 +44 +46 опасность
перегрева
1008.4 980.4 +31.7
12 19.03 С 3 30 км 5/0
[Ci fib]
+24.0 +22.6 92 +31 +35 очень
душно
1011.7 983.9 +22.0
15 19.03 С 6 30 км 1/1 500 м
[Cu hum]
+31.0 +25.0 70 +44 +50 опасность
перегрева
1012.3 984.4
18 19.03 С 5 30 км 4/4 600 м
[Cu med, cong]
+33.0 +25.1 63 +47 +52 опасность
перегрева
1010.1 982.2
12 20.03 штиль 0 30 км 8/0 2000 м
[Ac trans Ci sp]
+25.0 +23.6 92 +34 +37 очень
душно
1012.9 985.1 +23.0
15 20.03 штиль 0 30 км 9/0 2000 м
[Ac trans]
+31.5 +26.3 74 +48 +59 опасность
перегрева
1014.0 986.1
18 20.03 Ю 3 3000 м гроза, ливневой дождь 10/10 360 м
[Cb cap]
+26.0 +26.0 100 +39 +39 очень
душно
1013.2 984.2 29
21 20.03 Ю 5 4000 м слаб. дождь {гроза} 10/10 360 м
[Sc]
+25.0 +25.0 100 +36 +36 очень
душно
1012.0 983.0 +27.1
12 21.03 Ю 5 20 км 10/8 360 м
[Sc Cs]
+19.7 +19.7 100 +23 +23 комфорт 1017.2 988.2 +18.1 41
15 21.03 Ю 8 20 км 10/8 360 м
[Sc Cs]
+20.2 +19.6 96 +23 +24 комфорт 1018.2 989.2
18 21.03 Ю 8 20 км 10/8 360 м
[Sc Cs]
+21.0 +19.4 91 +25 +26 комфорт 1016.2 987.2
21 21.03 Ю 5 20 км 10/8 360 м
[Sc Cs]
+23.0 +20.1 84 +30 +30 очень
душно
1012.0 983.0 +23.9
12 22.03 Ю 3 20 км 5/5 300 м
[Sc]
+20.0 +18.1 89 +23 +25 комфорт 1016.5 987.2 +18.1
15 22.03 штиль 0 20 км 8/8 360 м
[Cu Sc]
+24.0 +19.7 77 +29 +34 душно 1018.2 989.2

 

Местоположение метеостанции Ассенсьон де Гуарай (Боливия): широта -15.71 долгота -63.10 высота над уровнем моря 247 м.

В архиве по умолчанию представлена погода в Ассенсьон де Гуарае за последнюю неделю. Архивные данные за месяц целиком и за предыдущие месяцы, начиная с января 2011 года, Вы можете получить, выбрав интересующий диапазон дат из раскрывающегося списка и нажав кнопку "Ввод!".


*Определитесь, кто Вы:
робот инопланетянин человек

Внимание! Время в таблицах - всемирное. Для получения местного времени необходимо прибавить поправку, которая равна -4 ч.

Смотрите также архив погоды в соседних городах и на ближайших метеорологических станциях:

Погода в Сан-Хавьере (Боливия) (92 км)
Погода в Консепсьоне (Боливия) (126 км)
Погода в Виру-Виру (Боливия) (214 км)
Погода в Тринидаде (Боливия) (218 км)
Погода в Санта-Крусе (Боливия) (233 км)
Погода в Сан-Игнасио (Боливия) (241 км)
Погода в Сан Игнасио де Moксосе (Боливия) (283 км)
Погода в Магдалене (Боливия) (286 км)
Погода в Сан-Рамоне (Боливия) (319 км)
Погода в Валье Гранде (Боливия) (323 км)

Пояснения к столбцам:

Ветер - указаны скорость ветра в м/с - средняя за 10 мин, порывы в срок и между сроками (в фигурных скобках) и направление, откуда дует ветер: С - северный, СВ - северо-восточный, В - восточный, ЮВ - юго-восточный, Ю - южный, ЮЗ - юго-западный, З - западный, СЗ - северо-западный.
Видимость - горизонтальная дальность видимости в метрах или километрах. При видимости от 1 до 10 км при отсутствии осадков обычно наблюдается дымка, при ухудшении видимости до 1 км и менее - туман. В сухую погоду видимость может ухудшаться дымом, пылью или мглою.
Явления - указаны атмосферные явления, наблюдавшиеся в срок или в последний час перед сроком; фигурными скобками обозначены явления, наблюдавшиеся между сроками (за 1-3 часа до срока); квадратными скобками обозначены град или гололедные отложения с указанием их диаметра в мм.
Облачность - указаны через наклонную черту общая и нижняя облачность в баллах и высота нижней границы облаков в метрах; квадратными скобками обозначены формы облаков: Ci - перистые, Cs - перисто-слоистые, Cc - перисто-кучевые, Ac - высококучевые, As - высокослоистые, Sc - слоисто-кучевые, Ns - слоисто-дождевые, Cu - кучевые, Cb - кучево-дождевые. Подробнее классификацию облаков см. в Атласе облаков (PDF).
T - Температура воздуха - температура, измеренная на высоте 2 м над землей.
Td - Температура точки росы - температура, при понижении до которой содержащийся в воздухе водяной пар достигнет насыщения.
f - Относительная влажность воздуха - влажноcть воздуха, измеренная на высоте 2 м над землей.
Te - Эффективная температура - температура, которую ощущает одетый по сезону человек в тени. Характеристика душности погоды. При расчете учитывается влияние влажности воздуха и скорости ветра на теплоощущения человека.
Tes - Эффективная температура на солнце - температура, которую ощущает человек, с поправкой на солнечный нагрев. Характеристика знойности погоды. Зависит от высоты солнца над горизонтом, облачности и скорости ветра. Ночью, в пасмурную погоду, а также при ветре 12 м/с и более поправка равна нулю.
P - Атмосферное давление - приведенное к уровню моря атмосферное давление.
Po - Атмосферное давление - измеренное на уровне метеостанции атмосферное давление.
Tmin - Минимальная температура - минимум температуры воздуха на высоте 2 м над землей.
Tmax - Максимальная температура - максимум температуры воздуха на высоте 2 м над землей.
R - Количество осадков - Количество выпавших осадков за период времени, мм. При наведении курсора мыши на число - период времени, за который выпало указанное количество осадков.
R24 - Количество осадков - Количество выпавших осадков за 24 часа, мм.
S - Снежный покров - Высота снежного покрова, см. При наведении курсора мыши на число - состояние снежного покрова и степень покрытия местности в баллах.